Regional Weather Roundup
Issued by NWS

Home | Current Version | Previous Version | Graphics & Text | Print | Product List | Glossary On
Versions: 1 2 3 4 5 6 7 8 9 10 11 12 13 14 15 16 17 18 19 20 21 22 23 24 25 26 27 28 29 30 31 32 33 34 35 36 37 38 39 40 41 42 43 44 45 46 47 48 49 50
000
ASUS43 KLSX 221559
RWRMO

WEATHER SUMMARY FOR MISSOURI
NATIONAL WEATHER SERVICE SPRINGFIELD MO
1100 AM CDT TUE JUL 22 2014

NOTE: "FAIR" INDICATES FEW OR NO CLOUDS BELOW 12,000 FEET WITH NO
       SIGNIFICANT WEATHER AND/OR OBSTRUCTIONS TO VISIBILITY.
       CURRENT SKY AND/OR WEATHER CONDITIONS ARE NOT AVAILABLE FOR
       CHILLICOTHE AND FARMINGTON.

MOZ001>031-035>038-043-044-053-054-221700-
...NORTHERN AND WESTERN MISSOURI...

CITY           SKY/WX    TMP DP  RH WIND       PRES   REMARKS
KANSAS CTY INT MOSUNNY   85  77  77 SW12      30.04R HX  95
KANSAS C DTWN  MOSUNNY   88  75  65 SW7       30.03R HAZE    HX  97
LEE`S SUMMIT   SUNNY     84  74  71 SW9       30.05S HX  91
ST JOSEPH      SUNNY     87  77  72 SW10      30.01S HX  99
CHILLICOTHE      N/A     86  76  71 CALM      30.03R HX  96
KIRKSVILLE     PTSUNNY   81  74  79 SE7       30.06R

$$
MOZ066>068-077>081-088>096-101>105-221700-
...SOUTHWEST MISSOURI...

CITY           SKY/WX    TMP DP  RH WIND       PRES   REMARKS
SPRINGFIELD    SUNNY     84  72  67 W8        30.11S
JOPLIN         SUNNY     87  72  60 SW14      30.10F HX  93

$$
MOZ032>034-039>042-045>050-055>058-069>072-221700-
...CENTRAL MISSOURI...

CITY           SKY/WX    TMP DP  RH WIND       PRES   REMARKS
COLUMBIA       SUNNY     85  75  72 SW8       30.07F HX  93
JEFFERSON CITY SUNNY     84  73  69 SW8       30.05F HX  90
ROLLA          SUNNY     83  70  64 SW8       30.09S
SEDALIA        SUNNY     87  74  64 SW10      30.06S HX  95
OSAGE BEACH    SUNNY     84  72  65 SW9       30.08S

$$
MOZ051-052-059>065-221700-
...EAST CENTRAL MISSOURI...

CITY           SKY/WX    TMP DP  RH WIND       PRES   REMARKS
ST LOUIS INTL  PTSUNNY   86  69  56 VRB3      30.08F HX  90
SPIRIT OF STL  MOSUNNY   85  69  58 VRB6      30.06S
ST CHARLES     MOSUNNY   83  68  60 W7        30.07S

$$
MOZ072>076-082>087-097>100-106>115-221700-
...SOUTH CENTRAL AND SOUTHEAST MISSOURI...

CITY           SKY/WX    TMP DP  RH WIND       PRES   REMARKS
CAPE GIRARDEAU SUNNY     83  67  58 W3        30.09S
FARMINGTON     SUNNY     81  66  61 S7        30.13S
POPLAR BLUFF   SUNNY     83  65  54 SW5       30.09S
WEST PLAINS    SUNNY     80  67  64 W5        30.14R

$$


USA.gov is the U.S. government's official web portal to all federal, state and local government web resources and services.